This demonstration page uses our WeatherBlox Daily Observations layout. Learn more.

Left ArrowRight Arrow

44.8408, -93.29828

Hourly Observations for March 13, 2022

Temp ( °F °C ) Dew Point ( °F °C ) Humidity (%) Winds ( mph kmh ) Pressure ( in mb ) Visibility ( mi km ) Precip ( " mm )
12:53 am 00:53 Mostly Cloudy 28 -2.2 13 -10.6 53 53 SW 9 15 29.72 1007 10 16 0.00 0.00
1:53 am 01:53 Mostly Cloudy 28 -2.2 14 -10 56 56 SW 8 13 29.72 1007 10 16 0.00 0.00
3:53 am 03:53 Mostly Clear 27 -2.8 15 -9.4 61 61 SW 9 15 29.72 1006 10 16 0.00 0.00
4:53 am 04:53 Clear 26 -3.3 15 -9.4 63 63 WSW 5 7 29.73 1007 10 16 0.00 0.00
5:53 am 05:53 Clear 26 -3.3 16 -8.9 66 66 W 7 11 29.77 1008 10 16 0.00 0.00
6:53 am 06:53 Mostly Clear 24 -4.4 16 -8.9 71 71 W 5 7 29.79 1009 10 16 0.00 0.00
7:53 am 07:53 Mostly Sunny 26 -3.3 19 -7.2 75 75 W 9 15 29.82 1010 10 16 0.00 0.00
8:53 am 08:53 Mostly Sunny 29 -1.7 22 -5.6 75 75 WNW 8 13 29.84 1011 10 16 0.00 0.00
9:53 am 09:53 Sunny 34 1.1 25 -3.9 70 70 NW 12 19 29.86 1011 10 16 0.00 0.00
10:53 am 10:53 Mostly Sunny 37 2.8 25 -3.9 62 62 WNW 14 22 29.88 1012 10 16 0.00 0.00
11:53 am 11:53 Partly Cloudy 40 4.4 25 -3.9 55 55 NW 10 17 29.91 1013 10 16 0.00 0.00
12:53 pm 12:53 Partly Cloudy 41 5 26 -3.3 55 55 NW 8 13 29.93 1013 10 16 0.00 0.00
1:53 pm 13:53 Partly Cloudy 42 5.6 27 -2.8 55 55 WNW 10 17 29.93 1014 10 16 0.00 0.00
2:53 pm 14:53 Partly Cloudy 43 6.1 27 -2.8 53 53 WNW 13 20 29.93 1014 10 16 0.00 0.00
3:53 pm 15:53 Partly Cloudy 43 6.1 27 -2.8 53 53 W 9 15 29.94 1014 10 16 0.00 0.00
4:53 pm 16:53 Mostly Cloudy 42 5.6 27 -2.8 55 55 W 8 13 29.94 1014 10 16 0.00 0.00
5:53 pm 17:53 Cloudy 41 5 27 -2.8 57 57 NW 6 9 29.96 1014 10 16 0.00 0.00
6:53 pm 18:53 Cloudy 39 3.9 26 -3.3 60 60 NNW 8 13 29.97 1015 10 16 0.00 0.00
7:53 pm 19:53 Cloudy 37 2.8 26 -3.3 65 65 NW 6 9 30.00 1016 10 16 0.00 0.00
8:53 pm 20:53 Cloudy 37 2.8 26 -3.3 65 65 NNW 5 7 30.02 1017 10 16 0.00 0.00
9:53 pm 21:53 Cloudy 37 2.8 26 -3.3 65 65 Calm 30.04 1017 10 16 0.00 0.00
10:53 pm 22:53 Cloudy 37 2.8 27 -2.8 67 67 Calm 30.06 1018 10 16 0.00 0.00
11:53 pm 23:53 Cloudy 37 2.8 26 -3.3 65 65 Calm 30.05 1018 10 16 0.00 0.00

Powered by AerisWeather